Temp
-9 -9 -9 -9 -10 -10 -10 -10 -10 -10 -10 -10 -10 -10 -10 -10 -9 -9 -9 -9 -9 -9 -9 -9 -9 -9 -9 -9 -10 -9 -10 -10 -10 -10 -10 -10 -10 -11 -10 -10 -10 -10 -10 -10 -10 -10 -10
-9 -9 -9 -9 -9 -9 -10 -10 -10 -10 -10 -10 -10 -10 -10 -10 -10 -9 -9 -9 -9 -10 -9 -9 -9 -10 -10 -9 -10 -10 -10 -10 -10 -10 -10 -11 -11 -10 -10 -10 -10 -10 -10 -10 -10 -10 -10
-9 -9 -9 -9 -9 -9 -10 -10 -10 -10 -10 -10 -10 -10 -10 -10 -10 -10 -10 -10 -9 -9 -9 -9 -9 -9 -9 -10 -10 -10 -10 -10 -10 -10 -10 -10 -10 -10 -10 -10 -10 -10 -10 -10 -9 -10 -10
-9 -9 -10 -10 -10 -10 -10 -10 -10 -10 -10 -10 -10 -10 -10 -10 -10 -10 -10 -10 -10 -9 -9 -9 -9 -9 -9 -9 -9 -9 -10 -10 -10 -10 -10 -10 -10 -10 -10 -10 -10 -10 -10 -10 -10 -10 -10
-10 -10 -10 -10 -10 -10 -10 -10 -10 -10 -10 -10 -10 -10 -10 -10 -10 -10 -10 -10 -10 -10 -9 -9 -9 -9 -9 -9 -9 -9 -9 -10 -10 -10 -10 -10 -10 -10 -10 -10 -10 -10 -10 -11 -12 -12 -11
-11 -11 -11 -11 -10 -10 -11 -10 -10 -10 -10 -10 -10 -10 -10 -10 -10 -10 -10 -10 -10 -10 -9 -9 -9 -9 -9 -9 -9 -9 -9 -10 -10 -10 -10 -11 -12 -12 -11 -12 -11 -13 -13 -12 -12 -12 -12
-11 -11 -11 -11 -11 -11 -11 -11 -10 -10 -10 -10 -10 -10 -10 -10 -10 -10 -11 -10 -10 -10 -9 -9 -9 -9 -9 -9 -9 -9 -10 -10 -10 -11 -12 -12 -12 -12 -13 -14 -14 -14 -13 -13 -13 -14 -14
-12 -12 -12 -11 -11 -11 -11 -11 -11 -11 -11 -11 -10 -10 -10 -10 -10 -10 -10 -10 -10 -10 -9 -9 -9 -9 -9 -9 -10 -10 -10 -10 -11 -12 -12 -13 -13 -14 -14 -15 -14 -14 -14 -13 -14 -14 -14
-12 -12 -12 -11 -11 -11 -11 -11 -11 -11 -11 -11 -10 -10 -10 -10 -11 -10 -10 -10 -10 -10 -10 -10 -10 -10 -10 -10 -10 -10 -11 -12 -13 -13 -14 -15 -15 -15 -16 -16 -16 -16 -16 -15 -14 -15 -15
-12 -12 -12 -12 -11 -11 -11 -11 -11 -11 -11 -11 -11 -11 -11 -11 -11 -11 -10 -10 -10 -10 -10 -10 -10 -10 -10 -11 -12 -12 -13 -13 -14 -15 -15 -16 -16 -17 -18 -18 -19 -18 -19 -18 -18 -17 -17
-13 -12 -12 -12 -11 -12 -12 -12 -11 -11 -11 -11 -11 -11 -11 -11 -11 -10 -10 -10 -10 -10 -11 -11 -11 -11 -12 -13 -14 -15 -16 -16 -17 -17 -18 -18 -18 -20 -21 -22 -22 -22 -22 -22 -21 -21 -21
-13 -13 -12 -12 -12 -12 -12 -12 -12 -12 -11 -11 -11 -11 -11 -11 -11 -10 -10 -10 -11 -11 -11 -12 -12 -13 -13 -15 -17 -17 -19 -20 -21 -22 -22 -22 -23 -23 -23 -24 -24 -24 -24 -24 -24 -24 -24
-13 -13 -13 -13 -12 -12 -12 -12 -12 -12 -12 -12 -12 -11 -11 -11 -11 -11 -11 -11 -11 -11 -12 -13 -14 -14 -15 -17 -19 -21 -23 -24 -24 -24 -25 -25 -25 -26 -27 -26 -27 -26 -25 -25 -25 -25 -24
-13 -13 -13 -13 -13 -12 -12 -12 -12 -12 -12 -12 -12 -12 -11 -11 -11 -11 -11 -12 -11 -12 -13 -14 -15 -17 -19 -21 -23 -25 -26 -27 -27 -27 -27 -27 -26 -28 -29 -29 -28 -27 -27 -27 -27 -25 -24
-14 -13 -13 -13 -13 -13 -12 -12 -12 -12 -12 -12 -12 -12 -12 -11 -12 -12 -12 -12 -12 -13 -14 -15 -17 -19 -21 -24 -26 -27 -28 -29 -30 -30 -30 -30 -28 -30 -31 -31 -30 -29 -29 -29 -28 -26 -25
-14 -13 -13 -13 -13 -12 -12 -12 -12 -12 -12 -12 -12 -12 -12 -12 -12 -12 -12 -13 -14 -15 -16 -19 -21 -23 -25 -27 -28 -29 -30 -31 -31 -32 -32 -31 -30 -30 -31 -31 -31 -31 -31 -30 -29 -28 -27
-14 -13 -13 -13 -13 -13 -12 -12 -12 -12 -13 -12 -12 -12 -12 -12 -13 -13 -13 -14 -15 -17 -19 -21 -24 -26 -28 -29 -30 -30 -31 -32 -32 -31 -32 -32 -31 -31 -32 -32 -31 -31 -31 -31 -30 -29 -28
-14 -13 -13 -13 -13 -13 -13 -12 -12 -13 -13 -13 -13 -13 -12 -13 -13 -14 -14 -15 -17 -20 -22 -23 -26 -28 -30 -31 -31 -32 -32 -32 -32 -32 -31 -31 -31 -31 -32 -32 -32 -32 -31 -31 -31 -30 -29
-14 -14 -13 -13 -13 -13 -13 -13 -13 -13 -13 -12 -13 -13 -13 -14 -14 -15 -16 -18 -21 -22 -23 -24 -28 -30 -31 -32 -32 -32 -33 -33 -32 -32 -32 -31 -31 -31 -32 -32 -32 -31 -31 -31 -31 -31 -30
-14 -13 -14 -13 -13 -13 -13 -13 -13 -13 -13 -13 -13 -14 -14 -14 -15 -16 -18 -20 -22 -23 -25 -26 -29 -31 -32 -32 -32 -33 -32 -32 -32 -32 -32 -32 -32 -32 -32 -32 -32 -31 -31 -31 -31 -31 -31
-14 -14 -14 -13 -13 -13 -13 -13 -13 -13 -13 -14 -14 -15 -15 -16 -17 -19 -20 -23 -24 -24 -25 -27 -29 -32 -33 -33 -33 -33 -33 -33 -33 -32 -32 -32 -32 -32 -32 -32 -32 -31 -31 -31 -31 -31 -31
-14 -14 -14 -13 -14 -14 -13 -13 -14 -14 -14 -15 -15 -16 -16 -17 -19 -21 -22 -23 -24 -26 -26 -28 -30 -32 -33 -33 -34 -34 -33 -33 -33 -32 -32 -32 -32 -32 -32 -31 -31 -31 -31 -31 -31 -31 -31
-14 -14 -14 -14 -14 -14 -13 -13 -14 -14 -15 -16 -16 -16 -17 -18 -20 -22 -23 -24 -25 -26 -27 -28 -29 -31 -32 -33 -33 -33 -33 -33 -33 -33 -32 -32 -32 -32 -32 -32 -31 -31 -31 -31 -31 -31 -31
-14 -14 -14 -14 -14 -14 -14 -14 -14 -15 -15 -16 -16 -17 -18 -20 -22 -23 -24 -25 -26 -27 -27 -28 -29 -31 -32 -33 -33 -33 -34 -33 -33 -33 -33 -33 -32 -32 -32 -32 -32 -32 -32 -32 -31 -31 -32
-14 -14 -14 -14 -14 -14 -14 -14 -15 -16 -16 -16 -17 -18 -20 -21 -23 -24 -25 -26 -27 -28 -29 -29 -29 -30 -30 -32 -33 -33 -33 -33 -33 -33 -33 -33 -33 -33 -33 -32 -32 -32 -32 -32 -31 -31 -31
-14 -14 -14 -14 -14 -14 -15 -16 -16 -16 -16 -17 -18 -20 -21 -23 -24 -25 -25 -26 -27 -28 -29 -30 -30 -30 -30 -31 -32 -33 -33 -33 -34 -34 -34 -33 -33 -33 -33 -33 -33 -32 -32 -32 -32 -32 -31
-15 -14 -14 -14 -15 -15 -16 -16 -16 -17 -17 -18 -20 -21 -23 -24 -25 -25 -26 -26 -27 -28 -28 -29 -30 -31 -31 -31 -32 -33 -33 -34 -34 -34 -34 -34 -34 -34 -33 -33 -33 -33 -33 -33 -32 -32 -32
-15 -15 -15 -15 -15 -15 -16 -17 -17 -17 -18 -19 -20 -22 -24 -25 -25 -26 -26 -27 -28 -28 -29 -30 -30 -30 -31 -32 -32 -32 -33 -33 -34 -34 -34 -34 -34 -34 -34 -34 -34 -33 -33 -33 -33 -33 -33
-15 -15 -15 -15 -15 -16 -17 -17 -17 -18 -19 -20 -22 -23 -25 -25 -26 -26 -27 -27 -28 -28 -29 -30 -30 -31 -31 -32 -32 -33 -33 -33 -33 -34 -34 -34 -34 -34 -34 -34 -34 -34 -34 -34 -33 -33 -33
Height
5802 5801 5800 5799 5797 5795 5793 5791 5788 5785 5782 5779 5777 5774 5770 5766 5763 5761 5759 5755 5753 5751 5748 5745 5744 5741 5739 5736 5734 5730 5728 5726 5723 5720 5717 5714 5712 5708 5706 5705 5703 5700 5702 5699 5698 5697 5698
5800 5798 5797 5796 5795 5793 5791 5788 5786 5782 5779 5777 5774 5771 5767 5763 5758 5755 5752 5750 5748 5745 5742 5740 5737 5734 5732 5730 5726 5723 5720 5718 5715 5712 5709 5706 5703 5700 5696 5694 5692 5691 5690 5690 5689 5687 5686
5797 5795 5793 5792 5791 5790 5788 5785 5782 5779 5776 5773 5770 5767 5762 5758 5754 5750 5748 5744 5741 5738 5735 5732 5729 5727 5724 5722 5718 5715 5713 5708 5705 5702 5698 5695 5691 5688 5684 5683 5680 5680 5678 5676 5676 5676 5676
5793 5792 5790 5789 5787 5785 5784 5781 5778 5775 5772 5769 5765 5761 5757 5753 5750 5746 5743 5739 5736 5733 5729 5725 5722 5719 5715 5711 5708 5705 5701 5697 5693 5689 5684 5680 5676 5672 5669 5666 5664 5664 5662 5662 5664 5662 5661
5789 5787 5787 5786 5784 5782 5779 5776 5773 5770 5766 5763 5759 5755 5751 5747 5743 5739 5735 5731 5728 5724 5721 5717 5714 5710 5706 5701 5697 5693 5689 5683 5679 5674 5670 5665 5660 5656 5653 5649 5646 5645 5645 5647 5646 5645 5645
5785 5784 5783 5782 5779 5777 5774 5771 5768 5764 5761 5757 5753 5749 5745 5740 5736 5732 5727 5724 5720 5717 5713 5708 5704 5701 5695 5689 5684 5678 5673 5668 5661 5656 5650 5645 5639 5635 5633 5629 5628 5628 5624 5624 5623 5623 5624
5782 5781 5780 5778 5774 5772 5769 5767 5763 5759 5755 5751 5746 5742 5738 5732 5728 5724 5721 5717 5714 5710 5705 5699 5695 5689 5682 5676 5671 5665 5658 5650 5644 5638 5631 5626 5620 5615 5611 5607 5606 5603 5601 5603 5603 5603 5603
5778 5777 5776 5773 5770 5767 5764 5761 5757 5753 5748 5744 5739 5734 5728 5723 5719 5716 5712 5707 5703 5698 5692 5687 5681 5673 5666 5659 5651 5645 5640 5631 5622 5615 5608 5602 5596 5592 5588 5582 5578 5576 5575 5580 5579 5580 5576
5775 5773 5771 5769 5766 5762 5758 5754 5750 5746 5742 5737 5731 5726 5721 5716 5712 5707 5703 5697 5691 5685 5679 5671 5664 5656 5647 5639 5630 5625 5615 5606 5597 5590 5582 5575 5571 5564 5560 5555 5549 5548 5545 5551 5549 5552 5550
5770 5769 5767 5764 5760 5756 5752 5748 5744 5739 5735 5730 5725 5719 5714 5709 5705 5699 5693 5686 5678 5669 5661 5655 5644 5637 5627 5613 5606 5595 5586 5580 5569 5562 5555 5548 5541 5532 5529 5525 5520 5518 5518 5518 5521 5524 5526
5766 5764 5761 5758 5754 5750 5746 5742 5737 5733 5728 5723 5716 5710 5705 5698 5693 5687 5680 5670 5661 5653 5639 5632 5621 5610 5601 5593 5576 5564 5551 5546 5536 5529 5521 5516 5508 5503 5499 5496 5492 5491 5492 5495 5499 5501 5503
5761 5758 5755 5752 5747 5744 5739 5735 5730 5725 5719 5714 5708 5702 5696 5690 5682 5674 5665 5655 5645 5635 5619 5609 5598 5585 5577 5563 5546 5535 5525 5511 5506 5502 5493 5489 5483 5479 5475 5471 5468 5472 5474 5480 5483 5486 5483
5755 5752 5749 5746 5741 5737 5733 5729 5723 5718 5712 5706 5699 5693 5686 5677 5669 5658 5648 5637 5627 5615 5602 5590 5577 5561 5546 5535 5523 5508 5496 5491 5484 5480 5476 5473 5467 5460 5456 5451 5453 5453 5455 5460 5465 5469 5472
5749 5746 5744 5740 5736 5731 5727 5721 5716 5710 5704 5697 5690 5682 5673 5664 5654 5643 5632 5620 5610 5598 5583 5565 5548 5533 5518 5505 5503 5492 5480 5472 5464 5460 5456 5452 5454 5450 5446 5442 5440 5443 5442 5446 5448 5456 5459
5743 5741 5737 5733 5729 5725 5720 5714 5708 5702 5695 5688 5680 5670 5661 5651 5640 5628 5615 5602 5589 5574 5559 5542 5528 5512 5502 5488 5477 5471 5464 5457 5453 5448 5444 5441 5443 5442 5439 5436 5435 5433 5434 5435 5434 5442 5448
5737 5735 5731 5726 5722 5718 5712 5706 5700 5693 5685 5677 5668 5658 5648 5636 5624 5611 5599 5584 5569 5552 5534 5517 5501 5492 5479 5472 5468 5460 5454 5449 5446 5443 5439 5437 5432 5436 5434 5431 5430 5427 5428 5429 5431 5434 5437
5732 5729 5724 5720 5715 5710 5704 5698 5691 5683 5675 5667 5657 5646 5635 5622 5610 5596 5583 5566 5547 5528 5516 5504 5488 5477 5469 5460 5457 5452 5447 5444 5439 5438 5435 5432 5430 5431 5427 5424 5424 5424 5423 5423 5425 5425 5423
5726 5723 5718 5713 5708 5703 5696 5689 5682 5674 5666 5657 5645 5635 5621 5607 5595 5579 5565 5548 5532 5517 5503 5489 5477 5467 5459 5453 5450 5446 5441 5437 5435 5432 5430 5427 5424 5423 5422 5420 5419 5419 5417 5417 5417 5418 5416
5720 5717 5712 5706 5701 5695 5688 5681 5672 5665 5655 5644 5631 5619 5607 5594 5582 5565 5546 5531 5518 5505 5492 5480 5468 5458 5454 5450 5445 5442 5438 5435 5432 5428 5425 5424 5419 5418 5417 5416 5415 5414 5413 5411 5410 5409 5410
5714 5710 5705 5699 5694 5687 5680 5671 5663 5654 5643 5632 5620 5607 5595 5580 5565 5550 5536 5521 5510 5493 5480 5470 5461 5454 5450 5447 5443 5439 5436 5433 5428 5425 5422 5419 5417 5415 5413 5411 5410 5409 5407 5406 5404 5403 5403
5707 5703 5698 5692 5685 5679 5671 5663 5653 5643 5631 5621 5609 5595 5582 5568 5551 5535 5523 5509 5498 5492 5477 5464 5458 5450 5444 5439 5438 5434 5431 5428 5425 5421 5418 5415 5413 5411 5410 5409 5407 5405 5403 5401 5399 5398 5397
5700 5696 5691 5684 5678 5671 5664 5654 5643 5632 5621 5611 5599 5584 5571 5556 5539 5527 5514 5502 5492 5479 5470 5460 5451 5444 5439 5433 5428 5425 5423 5422 5419 5417 5414 5412 5411 5408 5407 5406 5404 5402 5400 5397 5394 5393 5392
5693 5689 5683 5676 5670 5663 5654 5644 5635 5624 5612 5599 5586 5575 5559 5546 5532 5519 5507 5495 5485 5476 5464 5455 5447 5440 5435 5429 5424 5422 5417 5415 5414 5413 5411 5410 5408 5406 5404 5402 5401 5401 5397 5394 5389 5388 5387
5686 5682 5676 5669 5662 5653 5644 5635 5624 5614 5603 5591 5579 5565 5550 5537 5526 5513 5500 5490 5481 5472 5463 5452 5444 5435 5430 5422 5418 5416 5414 5412 5411 5408 5408 5406 5404 5403 5401 5399 5398 5396 5395 5392 5390 5387 5384
5679 5675 5668 5661 5653 5644 5635 5624 5614 5604 5594 5582 5569 5557 5543 5531 5520 5507 5497 5487 5474 5464 5457 5450 5443 5435 5428 5422 5416 5412 5409 5409 5407 5404 5402 5401 5399 5397 5396 5394 5393 5392 5391 5390 5388 5387 5385
5672 5666 5659 5652 5644 5635 5625 5615 5605 5595 5585 5573 5561 5548 5537 5526 5516 5507 5497 5489 5481 5470 5459 5448 5440 5433 5425 5418 5413 5410 5406 5403 5402 5400 5396 5395 5393 5392 5390 5389 5387 5386 5385 5384 5384 5383 5382
5663 5657 5651 5644 5635 5625 5616 5606 5596 5586 5576 5565 5554 5542 5531 5521 5511 5502 5495 5488 5477 5467 5460 5452 5443 5436 5428 5420 5413 5407 5403 5400 5397 5394 5392 5392 5389 5387 5385 5382 5381 5379 5378 5377 5377 5380 5375
5655 5649 5642 5635 5626 5617 5607 5598 5588 5578 5567 5557 5546 5535 5526 5515 5507 5498 5490 5481 5473 5466 5458 5450 5445 5435 5428 5421 5414 5407 5402 5398 5393 5389 5386 5384 5382 5379 5377 5376 5376 5372 5371 5371 5370 5368 5367
5647 5640 5633 5625 5617 5608 5599 5590 5579 5569 5559 5550 5540 5530 5521 5512 5504 5498 5489 5480 5472 5464 5457 5449 5442 5434 5426 5419 5413 5407 5402 5397 5392 5388 5384 5380 5377 5374 5372 5369 5366 5363 5361 5360 5358 5357 5356
Wind_Speed
10 13 14 15 15 15 18 20 23 25 26 27 26 28 30 30 29 28 26 26 25 26 26 25 25 27 27 29 30 31 26 23 24 28 29 30 29 31 34 36 37 37 35 37 38 41 42
15 15 17 16 19 19 21 23 24 26 28 28 27 30 32 31 30 30 30 28 27 28 29 29 29 31 33 35 34 35 32 33 32 35 35 36 38 41 42 41 41 41 40 39 40 41 41
18 18 18 18 18 21 22 23 26 28 29 29 29 34 31 31 31 32 31 33 35 35 34 35 36 37 41 40 40 39 39 41 43 45 45 46 48 49 52 51 51 49 48 48 47 45 45
20 22 21 19 19 20 23 24 27 31 31 31 33 33 34 33 33 35 37 36 36 36 36 38 38 41 41 43 45 45 46 48 49 51 53 55 57 58 59 61 61 59 58 57 50 48 49
21 20 19 19 21 22 24 27 28 32 34 35 33 35 36 35 36 37 38 37 38 37 37 39 42 47 49 49 50 51 52 53 54 56 59 61 63 66 67 66 67 68 64 55 58 58 53
19 19 20 20 22 24 26 28 30 34 36 34 37 38 37 39 40 40 39 39 38 38 39 42 47 51 52 54 54 55 56 59 67 68 66 64 62 65 68 67 69 57 62 68 67 64 61
20 21 22 23 24 26 27 30 32 35 35 37 38 40 40 42 41 36 37 39 40 45 49 48 51 55 57 59 61 64 68 74 74 72 70 73 74 71 67 69 67 69 72 73 73 71 70
21 21 24 25 26 28 30 32 35 35 36 38 40 42 44 43 42 41 42 42 46 51 54 55 58 61 65 69 73 73 75 76 78 78 77 80 79 75 74 75 76 77 79 80 77 76 77
23 23 25 26 28 31 33 34 36 36 38 40 41 45 46 43 44 45 46 49 53 57 59 60 64 71 72 73 77 79 79 82 82 82 80 80 78 78 75 74 75 77 80 79 81 78 80
25 27 28 30 31 34 34 35 36 38 40 42 45 45 44 44 46 49 52 57 62 66 67 76 79 76 80 80 84 87 86 86 87 87 84 82 76 74 74 74 77 78 78 79 80 81 83
27 29 30 32 34 35 35 37 39 40 41 44 45 46 47 48 52 57 62 66 70 74 78 82 80 83 87 87 91 91 88 89 83 79 77 75 76 75 72 71 72 74 72 73 74 74 73
28 30 31 32 33 35 37 38 38 40 42 45 46 48 51 55 59 62 67 71 75 77 83 83 88 91 92 93 88 85 76 70 69 64 65 65 66 66 67 67 65 65 66 61 59 55 55
29 30 30 32 34 35 36 38 40 43 45 46 50 54 56 61 64 69 73 76 81 85 88 91 92 97 97 91 80 69 63 60 59 57 55 53 53 54 50 53 49 49 50 50 54 56 58
28 30 31 31 33 35 37 40 42 45 48 50 54 58 63 67 70 73 77 82 85 90 93 96 96 92 80 74 62 55 53 49 47 44 43 42 39 34 29 29 37 34 34 34 39 28 35
29 30 32 33 34 36 40 43 45 47 52 55 57 63 68 70 73 77 82 87 91 95 98 102 94 83 71 63 57 50 44 39 32 28 27 31 29 22 21 20 23 24 18 21 34 47 34
28 32 36 35 37 40 43 45 49 53 56 57 62 67 70 73 76 82 87 91 94 99 97 86 77 70 63 54 47 42 35 29 24 16 21 26 32 23 17 15 17 21 15 11 13 15 40
29 34 37 40 40 43 47 49 52 53 56 60 65 69 71 75 80 86 89 94 98 94 85 74 67 60 51 47 40 35 28 23 22 22 23 26 28 19 17 15 14 14 16 15 16 17 14
31 34 39 38 40 45 47 50 51 54 59 63 67 69 74 78 84 88 93 97 94 77 71 66 57 50 43 35 31 27 25 24 24 23 22 26 26 20 13 11 14 16 17 17 20 24 26
34 38 40 41 43 46 50 52 56 58 63 66 70 74 78 83 86 90 93 87 76 68 65 60 50 41 33 25 27 27 24 22 22 24 25 23 25 18 17 15 16 14 13 16 22 27 26
35 40 40 41 46 50 52 53 57 62 65 68 72 75 79 85 88 89 86 77 67 64 58 53 43 33 28 24 26 27 29 26 22 22 22 23 21 18 13 15 19 20 15 16 17 20 24
37 40 41 44 51 51 51 55 60 64 66 70 73 76 81 84 82 81 74 65 61 58 53 49 40 29 23 30 32 32 34 33 20 19 19 19 17 16 15 18 17 16 17 18 20 20 21
39 40 43 47 49 48 53 59 61 64 66 70 72 76 81 81 76 70 64 61 58 53 51 46 41 32 30 33 36 36 35 31 18 15 15 14 17 18 15 14 10 10 14 18 14 13 15
36 39 43 46 47 52 57 60 63 65 66 69 74 76 78 76 71 65 59 58 55 49 47 45 41 34 28 28 28 28 31 17 17 16 13 11 14 18 17 13 14 14 15 19 15 13 14
37 41 44 47 51 55 59 63 65 65 68 70 74 75 73 71 65 57 55 54 49 46 45 45 42 37 31 29 28 22 15 14 12 13 20 23 24 22 21 17 17 18 16 14 11 12 9
40 41 44 49 54 59 62 63 63 65 67 70 73 70 67 62 56 54 51 48 47 45 43 42 40 38 33 27 24 21 18 16 15 21 24 23 23 23 19 22 24 23 22 17 13 13 12
42 44 49 53 56 60 61 59 62 65 66 68 67 65 63 57 51 47 46 42 39 40 40 41 41 38 37 31 26 21 18 17 17 20 23 23 24 22 22 22 23 24 25 22 18 17 18
42 46 50 54 59 61 58 59 62 63 66 66 62 60 54 50 47 44 40 39 41 42 41 39 38 34 33 31 27 23 21 20 20 21 21 21 22 22 22 24 25 25 24 26 26 23 22
44 48 52 57 60 59 57 59 60 62 62 61 59 55 49 45 43 41 41 42 43 42 42 41 37 36 33 30 29 27 24 22 21 20 20 20 21 22 24 25 25 26 27 28 29 29 30
45 49 53 58 60 57 56 58 59 59 58 58 54 49 44 41 39 39 40 41 42 43 40 40 38 36 35 32 31 29 28 26 24 22 21 19 18 18 18 18 20 22 25 28 31 34 36
Wind_Direction
291 293 299 302 310 316 320 323 326 329 335 336 335 336 335 331 330 331 332 323 319 316 313 314 313 312 313 311 314 308 306 295 286 292 294 290 285 287 288 285 284 282 283 275 269 266 262
291 289 292 294 299 303 308 315 322 325 329 326 323 328 325 325 325 322 324 322 317 311 309 308 307 308 308 305 303 301 299 297 290 290 287 284 280 278 279 284 284 284 281 280 278 273 266
284 289 288 289 294 300 303 310 318 321 321 321 320 321 323 323 322 319 317 317 316 314 308 304 304 305 303 303 301 299 296 292 291 290 289 286 282 279 278 278 279 280 278 277 274 276 274
282 288 287 287 293 298 301 307 313 316 317 318 318 318 319 319 318 317 314 311 310 307 304 299 299 300 300 300 298 295 291 288 286 284 283 283 284 283 282 281 279 280 277 276 272 272 275
281 284 288 293 297 298 302 305 312 313 315 317 317 316 317 317 315 312 310 309 306 301 300 298 293 295 295 297 297 295 292 289 288 289 287 285 285 284 283 282 279 279 278 272 272 273 266
279 285 291 295 299 300 303 309 312 313 316 318 316 318 317 315 313 311 308 305 300 299 300 301 299 299 296 294 295 295 294 292 293 294 292 287 283 281 280 280 280 277 271 268 267 264 259
282 289 294 297 299 303 308 311 314 315 316 316 318 319 317 313 313 312 309 305 303 302 300 299 302 302 300 298 294 293 294 294 294 291 288 285 283 283 282 280 277 272 271 272 273 273 271
289 293 296 298 303 307 309 312 314 316 317 318 319 319 316 312 312 310 308 308 307 308 306 302 300 300 299 298 298 297 294 293 291 289 288 286 284 284 282 280 278 277 277 274 272 271 269
294 295 298 302 307 309 313 317 316 317 317 318 317 319 317 314 313 312 312 310 309 309 307 305 304 303 304 304 300 296 294 293 293 291 291 291 290 288 283 278 273 271 269 270 268 260 260
295 299 303 304 307 310 314 314 317 319 318 317 317 319 317 314 314 314 313 311 312 312 311 310 309 308 306 305 301 299 298 296 296 296 294 291 285 277 271 267 264 261 258 258 256 255 254
296 301 304 305 309 312 314 316 318 317 319 318 319 318 315 314 315 316 314 313 313 312 315 314 313 310 309 308 307 309 306 303 300 296 290 283 279 274 269 265 263 262 262 262 260 260 261
300 304 307 310 314 315 316 317 319 320 320 319 319 317 316 317 317 316 317 316 315 316 319 317 314 314 312 313 313 310 304 295 290 284 281 278 276 274 273 272 269 267 263 258 265 268 262
303 306 311 315 316 317 317 318 319 319 320 322 321 318 318 319 319 319 319 320 321 320 319 317 316 315 316 316 311 304 297 292 288 285 280 276 276 276 277 275 275 275 271 264 256 254 258
305 310 312 314 317 318 318 318 319 318 321 321 319 320 321 322 322 322 322 322 320 319 320 319 320 321 317 313 307 303 299 296 294 292 287 283 277 280 287 293 286 280 275 264 243 242 242
307 311 313 312 315 319 318 319 319 320 322 320 319 322 323 323 323 323 323 323 323 323 322 323 323 321 317 314 312 311 308 307 309 307 303 303 293 303 313 302 291 281 279 257 247 227 228
306 312 311 311 313 315 317 319 319 320 319 319 321 322 322 324 325 324 325 326 325 326 328 328 325 322 320 318 317 313 314 312 312 299 300 305 303 317 313 286 283 285 288 261 234 250 240
306 310 315 316 311 315 318 318 318 319 319 321 322 322 324 326 326 327 328 328 329 331 331 329 326 324 321 319 319 320 323 311 304 307 299 302 309 328 317 278 280 272 282 281 240 232 223
307 313 317 316 316 318 318 319 318 318 321 322 324 325 326 328 328 330 330 331 332 335 334 331 328 324 322 324 329 336 328 320 314 312 310 312 313 319 319 301 299 287 287 282 254 236 234
305 309 316 318 318 320 320 319 319 321 322 324 326 328 329 331 331 332 334 336 337 337 335 334 331 327 329 336 336 349 331 323 319 315 316 317 319 320 325 311 298 296 287 292 278 262 250
308 311 313 318 322 320 319 321 322 324 325 328 329 331 332 332 333 335 337 339 340 339 338 337 338 330 332 330 319 331 336 330 312 317 307 313 310 312 308 313 315 311 292 288 296 275 266
308 309 315 317 319 320 323 325 327 328 329 330 332 333 333 335 338 340 341 341 341 341 342 343 343 325 323 309 310 312 316 329 320 314 312 307 313 301 306 311 305 304 310 304 289 286 276
307 311 317 319 318 321 324 327 330 330 332 333 333 334 334 339 340 342 342 342 343 345 347 350 345 336 314 308 307 310 314 319 320 325 319 296 324 284 305 308 305 345 350 329 295 270 281
310 315 318 319 320 322 325 328 331 332 334 334 335 335 338 342 342 343 343 342 345 349 352 353 351 344 334 322 315 313 314 321 327 324 305 299 307 297 299 302 298 311 330 335 338 275 267
310 314 316 317 320 323 327 330 330 333 335 335 335 337 340 343 344 345 345 346 347 351 354 357 359 351 343 330 325 323 315 308 306 279 293 296 292 295 302 295 297 305 315 330 346 359 353
314 316 319 321 321 323 327 329 331 335 335 335 336 339 342 344 346 348 349 348 353 356 359 358 1 1 358 345 335 324 308 296 286 285 291 292 296 298 301 286 289 297 299 303 307 303 311
312 314 319 322 324 326 327 329 334 334 334 335 337 341 343 347 348 348 350 352 357 357 359 358 0 2 4 360 348 339 326 310 292 293 297 295 292 300 299 298 294 290 293 293 292 286 284
311 317 320 323 325 326 328 332 332 332 334 336 339 342 346 348 350 353 355 358 1 2 1 358 358 359 3 7 3 351 340 327 315 303 289 279 284 289 291 291 291 289 287 288 285 285 281
309 315 319 322 324 326 329 330 331 332 334 336 340 345 347 350 353 354 354 1 3 3 4 2 357 358 360 4 9 10 4 351 337 328 320 311 303 296 289 286 282 279 279 279 278 277 277
311 314 318 321 324 326 328 328 330 332 335 337 342 346 348 351 353 350 353 357 357 359 0 2 3 2 2 4 7 6 7 5 359 352 347 346 340 334 322 313 303 295 288 281 277 274 271